EN

Hourly Weather Dzierzkowice

Today, 29 October, Thursday

Time Temperature Precipitation Wind Pressure Humidity
00:00 +12°C° 0 mm 2 mps 745 mmHg 86%
01:00 +12°C° 0 mm 2 mps 745 mmHg 89%
02:00 +10°C° 0 mm 2 mps 744 mmHg 89%
03:00 +10°C° 0 mm 2 mps 744 mmHg 89%
04:00 +10°C° 0 mm 2 mps 744 mmHg 89%
05:00 +10°C° 0 mm 2 mps 744 mmHg 90%
06:00 +10°C° 0 mm 3 mps 744 mmHg 91%
07:00 +10°C° 0 mm 3 mps 744 mmHg 90%
08:00 +11°C° 0 mm 3 mps 744 mmHg 83%
09:00 +12°C° 0 mm 3 mps 744 mmHg 76%
10:00 +13°C° 0 mm 4 mps 744 mmHg 69%
11:00 +13°C° 0 mm 4 mps 744 mmHg 67%
12:00 +14°C° 0 mm 4 mps 744 mmHg 65%
13:00 +14°C° 0 mm 4 mps 744 mmHg 63%
14:00 +14°C° 0 mm 4 mps 744 mmHg 65%
15:00 +13°C° 0 mm 4 mps 744 mmHg 68%
16:00 +12°C° 0 mm 3 mps 744 mmHg 70%
17:00 +12°C° 0.3 mm 3 mps 744 mmHg 75%
18:00 +11°C° 0.3 mm 4 mps 744 mmHg 80%
19:00 +11°C° 0.3 mm 4 mps 744 mmHg 85%
20:00 +11°C° 0.3 mm 4 mps 745 mmHg 84%
21:00 +10°C° 0.3 mm 4 mps 745 mmHg 83%
22:00 +10°C° 0.3 mm 3 mps 745 mmHg 82%
23:00 +10°C° 0 mm 4 mps 746 mmHg 81%

Tomorrow, 30 October, Friday

Time Temperature Precipitation Wind Pressure Humidity
00:00 +8°C° 0 mm 4 mps 746 mmHg 80%
01:00 +8°C° 0 mm 4 mps 746 mmHg 79%
02:00 +7°C° 0 mm 4 mps 746 mmHg 82%
03:00 +7°C° 0 mm 3 mps 746 mmHg 85%
04:00 +5°C° 0 mm 3 mps 746 mmHg 87%
05:00 +5°C° 0 mm 3 mps 747 mmHg 88%
06:00 +5°C° 0 mm 3 mps 747 mmHg 89%
07:00 +5°C° 0 mm 3 mps 748 mmHg 90%
08:00 +7°C° 0 mm 3 mps 748 mmHg 84%
09:00 +8°C° 0 mm 3 mps 748 mmHg 79%
10:00 +9°C° 0 mm 3 mps 747 mmHg 73%
11:00 +10°C° 0 mm 4 mps 747 mmHg 70%
12:00 +10°C° 0 mm 4 mps 747 mmHg 67%
13:00 +11°C° 0 mm 4 mps 747 mmHg 64%
14:00 +10°C° 0 mm 3 mps 746 mmHg 67%
15:00 +10°C° 0 mm 3 mps 746 mmHg 70%
16:00 +9°C° 0 mm 3 mps 746 mmHg 74%
17:00 +9°C° 0.4 mm 3 mps 745 mmHg 79%
18:00 +9°C° 0.4 mm 3 mps 745 mmHg 85%
19:00 +8°C° 0.4 mm 3 mps 745 mmHg 90%
20:00 +8°C° 1.2 mm 2 mps 745 mmHg 92%
21:00 +8°C° 1.2 mm 2 mps 745 mmHg 94%
22:00 +10°C° 1.2 mm 1 mps 745 mmHg 95%
23:00 +8°C° 0.1 mm 2 mps 745 mmHg 95%

Day after tomorrow, 31 October, Saturday

Time Temperature Precipitation Wind Pressure Humidity
00:00 +8°C° 0.1 mm 2 mps 745 mmHg 94%
01:00 +8°C° 0.1 mm 2 mps 745 mmHg 94%
02:00 +8°C° 0 mm 2 mps 746 mmHg 94%
03:00 +8°C° 0 mm 3 mps 746 mmHg 93%
04:00 +8°C° 0 mm 3 mps 747 mmHg 93%
05:00 +7°C° 0 mm 3 mps 747 mmHg 93%
06:00 +5°C° 0 mm 3 mps 748 mmHg 94%
07:00 +5°C° 0 mm 3 mps 748 mmHg 95%
08:00 +7°C° 0 mm 3 mps 749 mmHg 90%
09:00 +8°C° 0 mm 3 mps 749 mmHg 85%
10:00 +8°C° 0 mm 4 mps 750 mmHg 80%
11:00 +8°C° 0 mm 4 mps 750 mmHg 78%
12:00 +8°C° 0 mm 4 mps 750 mmHg 76%
13:00 +8°C° 0 mm 4 mps 750 mmHg 74%
14:00 +8°C° 0 mm 4 mps 750 mmHg 75%
15:00 +8°C° 0 mm 3 mps 750 mmHg 76%
16:00 +8°C° 0 mm 3 mps 751 mmHg 77%
17:00 +7°C° 0 mm 2 mps 751 mmHg 81%
18:00 +7°C° 0 mm 2 mps 751 mmHg 84%
19:00 +6°C° 0 mm 2 mps 752 mmHg 88%
20:00 +6°C° 0 mm 2 mps 752 mmHg 89%
21:00 +6°C° 0 mm 2 mps 752 mmHg 91%
22:00 +5°C° 0 mm 2 mps 752 mmHg 93%
23:00 +5°C° 0 mm 2 mps 752 mmHg 93%

1 November, Sunday

Time Temperature Precipitation Wind Pressure Humidity
00:00 +6°C° 0 mm 1 mps 752 mmHg 93%
01:00 +6°C° 0 mm 1 mps 752 mmHg 93%
02:00 +5°C° 0 mm 1 mps 752 mmHg 93%
03:00 +5°C° 0 mm 1 mps 752 mmHg 94%
04:00 +4°C° 0 mm 0 mps 751 mmHg 94%
05:00 +4°C° 0 mm 0 mps 751 mmHg 94%
06:00 +5°C° 0 mm 1 mps 751 mmHg 94%
07:00 +5°C° 0 mm 1 mps 751 mmHg 94%
08:00 +7°C° 0 mm 1 mps 751 mmHg 88%
09:00 +8°C° 0 mm 1 mps 751 mmHg 82%
10:00 +9°C° 0 mm 1 mps 751 mmHg 76%
11:00 +10°C° 0 mm 1 mps 751 mmHg 72%
12:00 +10°C° 0 mm 2 mps 751 mmHg 69%
13:00 +12°C° 0 mm 2 mps 751 mmHg 65%
14:00 +10°C° 0 mm 2 mps 750 mmHg 70%
15:00 +9°C° 0 mm 2 mps 750 mmHg 75%
16:00 +8°C° 0 mm 2 mps 750 mmHg 80%
17:00 +8°C° 0 mm 2 mps 750 mmHg 84%
18:00 +7°C° 0 mm 2 mps 750 mmHg 87%
19:00 +5°C° 0 mm 3 mps 750 mmHg 91%
20:00 +5°C° 0 mm 3 mps 749 mmHg 91%
21:00 +5°C° 0 mm 3 mps 749 mmHg 92%
22:00 +5°C° 0 mm 3 mps 749 mmHg 92%
23:00 +4°C° 0 mm 3 mps 749 mmHg 93%

2 November, Monday

Time Temperature Precipitation Wind Pressure Humidity
00:00 +4°C° 0 mm 3 mps 749 mmHg 93%
01:00 +4°C° 0 mm 3 mps 749 mmHg 93%
02:00 +4°C° 0 mm 3 mps 749 mmHg 93%
03:00 +3°C° 0 mm 3 mps 748 mmHg 93%
04:00 +3°C° 0 mm 3 mps 748 mmHg 94%
05:00 +3°C° 0 mm 3 mps 748 mmHg 93%
06:00 +3°C° 0 mm 3 mps 748 mmHg 92%
07:00 +3°C° 0 mm 3 mps 748 mmHg 92%
08:00 +4°C° 0 mm 3 mps 748 mmHg 85%
09:00 +7°C° 0 mm 3 mps 748 mmHg 78%
10:00 +8°C° 0 mm 3 mps 748 mmHg 71%
11:00 +9°C° 0 mm 3 mps 748 mmHg 68%
12:00 +10°C° 0 mm 3 mps 748 mmHg 65%
13:00 +11°C° 0 mm 3 mps 747 mmHg 62%
14:00 +10°C° 0 mm 3 mps 747 mmHg 67%
15:00 +10°C° 0 mm 3 mps 747 mmHg 71%
16:00 +9°C° 0 mm 3 mps 747 mmHg 76%
17:00 +9°C° 0 mm 3 mps 747 mmHg 78%
18:00 +9°C° 0 mm 3 mps 747 mmHg 79%
19:00 +8°C° 0 mm 3 mps 747 mmHg 81%
20:00 +8°C° 0 mm 3 mps 747 mmHg 81%
21:00 +8°C° 0 mm 3 mps 747 mmHg 81%
22:00 +9°C° 0 mm 3 mps 747 mmHg 81%
23:00 +8°C° 0.2 mm 3 mps 747 mmHg 82%

3 November, Tuesday

Time Temperature Precipitation Wind Pressure Humidity
00:00 +8°C° 0.2 mm 3 mps 747 mmHg 83%
01:00 +8°C° 0.2 mm 3 mps 747 mmHg 85%
02:00 +8°C° 0.8 mm 3 mps 747 mmHg 87%
03:00 +8°C° 0.8 mm 3 mps 747 mmHg 89%
04:00 +8°C° 0.8 mm 3 mps 747 mmHg 91%
05:00 +8°C° 0.4 mm 3 mps 747 mmHg 91%
06:00 +8°C° 0.4 mm 3 mps 747 mmHg 92%
07:00 +8°C° 0.4 mm 3 mps 748 mmHg 92%
08:00 +8°C° 0.1 mm 3 mps 748 mmHg 90%
09:00 +8°C° 0.1 mm 3 mps 748 mmHg 89%
10:00 +8°C° 0.1 mm 3 mps 748 mmHg 87%
11:00 +8°C° 0 mm 3 mps 748 mmHg 85%
12:00 +8°C° 0 mm 3 mps 748 mmHg 83%
13:00 +9°C° 0 mm 3 mps 748 mmHg 80%
14:00 +9°C° 0 mm 3 mps 748 mmHg 81%
15:00 +8°C° 0 mm 2 mps 748 mmHg 82%
16:00 +8°C° 0 mm 2 mps 748 mmHg 83%
17:00 +8°C° 0 mm 2 mps 749 mmHg 84%
18:00 +8°C° 0 mm 2 mps 749 mmHg 86%
19:00 +7°C° 0 mm 3 mps 750 mmHg 88%
20:00 +7°C° 0 mm 3 mps 750 mmHg 89%
21:00 +7°C° 0 mm 3 mps 750 mmHg 90%
22:00 +5°C° 0 mm 3 mps 750 mmHg 91%
23:00 +5°C° 0 mm 3 mps 750 mmHg 91%
Show more